CW6761 Aldeanueva de Vera ES current weather conditions

sailwx.info

Wind from 351

Air temperature 8.9° C
Dewpoint 3.1° C

Last reported at 2018-Jan-24 09:06 UTC.
Time now 2018-Jan-24 10:00 UTC

Location: N 40°08' W 005°42'.
View on Google Maps.

See reports from other nearby stations

  
Tides and Currents Weather Stations Pressure Air Temp Water Temp Dewpoint Dewpoint Depression Visibility Wind Speed Wind Dir Waves Ship Positions
date/time (UTC)wind fromknots sea level pressurealtimeterstation pressurevisibilityair tempwater tempwave heightnotes
2018-Jan-24 09:06 351 8.9
2018-Jan-24 09:01 351 8.3
2018-Jan-24 08:56 351 8.3
2018-Jan-24 08:51 351 8.3
2018-Jan-24 08:46 351 8.3
2018-Jan-24 08:41 351 7.8
2018-Jan-24 08:36 351 7.8
2018-Jan-24 08:31 351 7.2
2018-Jan-24 08:26 351 7.2
2018-Jan-24 08:21 360 7.2
2018-Jan-24 08:16 360 0 6.7
2018-Jan-24 08:11 360 1 6.7
2018-Jan-24 08:06 355 1 6.7
2018-Jan-24 08:01 355 2 6.7
2018-Jan-24 07:56 019 3 6.7
2018-Jan-24 07:51 336 3 6.7
2018-Jan-24 07:46 360 2 6.7
2018-Jan-24 07:41 339 3 6.1
2018-Jan-24 07:36 009 2 6.1
2018-Jan-24 07:31 355 1 6.1
2018-Jan-24 07:26 348 0 5.6
2018-Jan-24 07:21 344 5.6
2018-Jan-24 07:16 344 5.6
2018-Jan-24 07:11 344 6.1
2018-Jan-24 07:06 344 6.1
2018-Jan-24 07:01 344 6.1
2018-Jan-24 06:56 344 6.1
2018-Jan-24 06:51 344 6.1
2018-Jan-24 06:46 344 6.1
2018-Jan-24 06:41 344 6.7
2018-Jan-24 06:36 345 6.1
2018-Jan-24 06:31 345 6.1
2018-Jan-24 06:26 345 6.7
2018-Jan-24 06:21 345 6.7
2018-Jan-24 06:16 345 6.7
2018-Jan-24 06:11 345 6.7
2018-Jan-24 06:06 345 6.1
2018-Jan-24 06:01 345 6.1
2018-Jan-24 05:56 344 6.1
2018-Jan-24 05:51 344 0 6.7
2018-Jan-24 05:46 340 0 6.7
2018-Jan-24 05:41 340 6.7
2018-Jan-24 05:36 338 6.7
2018-Jan-24 05:31 336 0 6.7
2018-Jan-24 05:26 346 1 6.7
2018-Jan-24 05:21 345 1 6.7
2018-Jan-24 05:16 342 0 7.2
2018-Jan-24 05:11 340 0 7.2
2018-Jan-24 05:06 339 7.2
2018-Jan-24 05:01 336 7.2
2018-Jan-24 04:56 335 7.2
2018-Jan-24 04:51 336 7.2
2018-Jan-24 04:46 336 7.2
2018-Jan-24 04:41 336 1 7.2
2018-Jan-24 04:36 336 2 7.2
2018-Jan-24 04:31 337 0 7.2
2018-Jan-24 04:26 332 6.7
2018-Jan-24 04:21 329 6.7
2018-Jan-24 04:16 331 6.7
2018-Jan-24 04:11 333 0 6.7
2018-Jan-24 04:06 335 0 6.7
2018-Jan-24 04:01 333 0 7.2
2018-Jan-24 03:56 332 7.2
2018-Jan-24 03:51 330 0 7.2
2018-Jan-24 03:46 328 1 7.2
2018-Jan-24 03:41 333 1 7.2
2018-Jan-24 03:36 336 2 7.2
2018-Jan-24 03:31 334 0 7.2
2018-Jan-24 03:26 333 7.8
2018-Jan-24 03:21 325 7.8
2018-Jan-24 03:16 338 7.8
2018-Jan-24 03:11 347 7.8
2018-Jan-24 03:06 336 7.8
2018-Jan-24 03:01 336 7.8
2018-Jan-24 02:56 336 7.8
2018-Jan-24 02:51 336 0 7.8
2018-Jan-24 02:46 331 1 8.3
2018-Jan-24 02:41 334 0 8.3
2018-Jan-24 02:36 332 1 8.3
2018-Jan-24 02:31 346 1 8.3
2018-Jan-24 02:26 341 1 8.3
2018-Jan-24 02:21 341 0 8.3
2018-Jan-24 02:16 345 8.3
2018-Jan-24 02:11 344 0 8.3
2018-Jan-24 02:06 344 0 8.3
2018-Jan-24 02:01 346 8.3
2018-Jan-24 01:56 348 8.3
2018-Jan-24 01:51 350 8.3
2018-Jan-24 01:46 350 0 8.3
2018-Jan-24 01:41 355 0 8.3
2018-Jan-24 01:36 348 7.8
2018-Jan-24 01:31 334 7.8
2018-Jan-24 01:26 334 7.8
2018-Jan-24 01:21 332 7.8
2018-Jan-24 01:16 330 1 7.8
2018-Jan-24 01:11 328 1 7.8
2018-Jan-24 01:06 332 0 7.8
2018-Jan-24 01:01 332 7.8
2018-Jan-24 00:56 333 7.8
2018-Jan-24 00:51 336 7.8
2018-Jan-24 00:46 325 7.8
2018-Jan-24 00:41 325 0 7.8
2018-Jan-24 00:36 350 0 7.8
2018-Jan-24 00:31 336 7.8
2018-Jan-24 00:26 336 7.8
2018-Jan-24 00:21 336 7.8
2018-Jan-24 00:16 335 7.8
2018-Jan-24 00:11 335 7.8
2018-Jan-24 00:06 335 7.8
2018-Jan-24 00:01 336 8.3
2018-Jan-23 23:56 336 7.8
2018-Jan-23 23:51 336 7.8
2018-Jan-23 23:46 336 7.8
2018-Jan-23 23:41 336 7.8
2018-Jan-23 23:36 336 7.8
2018-Jan-23 23:31 336 7.8
2018-Jan-23 23:26 336 7.8
2018-Jan-23 23:21 336 7.8
2018-Jan-23 23:16 336 7.8
2018-Jan-23 23:11 344 7.8
2018-Jan-23 23:06 343 0 7.8
2018-Jan-23 23:01 344 2 7.8
2018-Jan-23 22:56 355 3 7.8
2018-Jan-23 22:51 355 3 8.3
2018-Jan-23 22:46 340 2 8.3
2018-Jan-23 22:41 355 1 8.3
2018-Jan-23 22:36 350 1 8.3
2018-Jan-23 22:31 343 2 8.3
2018-Jan-23 22:26 344 2 8.3
2018-Jan-23 22:21 344 1 8.3
2018-Jan-23 22:16 333 0 8.3
2018-Jan-23 22:11 335 1 8.3
2018-Jan-23 22:06 334 1 8.3
2018-Jan-23 22:01 333 2 8.3
2018-Jan-23 21:56 332 1 8.3
2018-Jan-23 21:51 331 0 8.3
2018-Jan-23 21:46 332 1 8.3
2018-Jan-23 21:41 335 2 8.3
2018-Jan-23 21:36 342 2 8.3
2018-Jan-23 21:31 336 2 8.3
2018-Jan-23 21:26 341 2 8.3
2018-Jan-23 21:21 341 2 8.3
2018-Jan-23 21:16 341 2 8.3
2018-Jan-23 21:11 338 1 8.9
2018-Jan-23 21:06 340 8.9
2018-Jan-23 21:01 341 8.9
2018-Jan-23 20:56 340 8.9
2018-Jan-23 20:51 341 8.9
2018-Jan-23 20:46 341 0 8.9
2018-Jan-23 20:41 342 0 8.9
2018-Jan-23 20:36 342 8.9
2018-Jan-23 20:31 344 8.9
2018-Jan-23 20:26 336 8.9
2018-Jan-23 20:21 336 0 8.9
2018-Jan-23 20:16 341 1 8.9
2018-Jan-23 20:11 342 1 8.9
2018-Jan-23 20:06 340 2 8.9
2018-Jan-23 20:01 341 2 8.9
2018-Jan-23 19:56 336 2 8.9
2018-Jan-23 19:51 334 1 8.9
2018-Jan-23 19:46 335 0 9.4
2018-Jan-23 19:41 331 1 9.4
2018-Jan-23 19:36 331 1 9.4
2018-Jan-23 19:31 331 0 9.4
2018-Jan-23 19:26 330 9.4
2018-Jan-23 19:21 331 9.4
2018-Jan-23 19:16 330 9.4
2018-Jan-23 19:11 329 9.4
2018-Jan-23 19:06 329 9.4
2018-Jan-23 19:01 327 9.4
2018-Jan-23 18:56 327 9.4
2018-Jan-23 18:51 327 0 9.4
2018-Jan-23 18:46 327 1 9.4
2018-Jan-23 18:41 327 0 9.4
2018-Jan-23 18:36 327 9.4
2018-Jan-23 18:31 327 9.4
2018-Jan-23 18:26 327 9.4
2018-Jan-23 18:21 327 10.0
2018-Jan-23 18:16 327 10.0
2018-Jan-23 18:11 327 10.0
2018-Jan-23 18:06 327 10.0
2018-Jan-23 18:01 327 10.0
2018-Jan-23 17:56 283 10.0
2018-Jan-23 17:51 283 10.6
2018-Jan-23 17:46 269 10.6
2018-Jan-23 17:41 269 11.1
2018-Jan-23 17:36 269 11.1
2018-Jan-23 17:31 194 11.7
2018-Jan-23 17:26 194 11.7
2018-Jan-23 17:21 194 12.2
2018-Jan-23 17:16 194 12.2
2018-Jan-23 17:11 194 12.2
2018-Jan-23 17:06 194 12.8
2018-Jan-23 17:01 194 12.8
2018-Jan-23 16:56 194 12.8
2018-Jan-23 16:51 194 12.8
2018-Jan-23 16:46 194 13.3
2018-Jan-23 16:41 192 13.3
2018-Jan-23 16:36 192 13.3
2018-Jan-23 16:31 192 13.3
2018-Jan-23 16:26 193 13.9
2018-Jan-23 16:21 194 13.9
2018-Jan-23 16:16 194 13.9
2018-Jan-23 16:11 224 14.4
2018-Jan-23 16:06 195 14.4
2018-Jan-23 16:01 196 0 14.4
2018-Jan-23 15:56 188 0 15.0
2018-Jan-23 15:51 207 0 15.0
2018-Jan-23 15:46 198 0 15.0
2018-Jan-23 15:41 191 0 15.6
2018-Jan-23 15:36 193 16.1
2018-Jan-23 15:31 194 16.7
2018-Jan-23 15:26 174 16.7
2018-Jan-23 15:21 174 16.7
2018-Jan-23 15:16 187 16.1
2018-Jan-23 15:11 219 0 16.1
2018-Jan-23 15:06 237 0 16.1
2018-Jan-23 15:01 206 16.1
2018-Jan-23 14:56 203 16.7
2018-Jan-23 14:51 184 0 16.7
2018-Jan-23 14:46 164 0 16.7
2018-Jan-23 14:41 169 16.7
2018-Jan-23 14:36 132 0 16.7
2018-Jan-23 14:31 171 0 16.7
2018-Jan-23 14:26 196 0 16.7
2018-Jan-23 14:21 161 0 16.7
2018-Jan-23 14:16 196 0 16.7
2018-Jan-23 14:11 188 16.7
2018-Jan-23 14:06 142 16.7
2018-Jan-23 14:01 141 16.1
2018-Jan-23 13:56 088 0 16.1
2018-Jan-23 13:51 069 16.7
2018-Jan-23 13:46 117 16.7
2018-Jan-23 13:41 176 0 16.1
2018-Jan-23 13:36 111 0 16.7
2018-Jan-23 13:31 146 0 16.7
2018-Jan-23 13:26 178 0 16.7
2018-Jan-23 13:21 134 16.1
2018-Jan-23 13:16 117 0 16.1
2018-Jan-23 13:11 134 0 16.1
2018-Jan-23 13:06 154 0 16.1
2018-Jan-23 13:01 088 1 16.1
2018-Jan-23 12:56 179 1 16.1
2018-Jan-23 12:51 159 0 16.1
2018-Jan-23 12:46 120 0 16.1
2018-Jan-23 12:41 146 0 16.1
2018-Jan-23 12:36 133 0 15.6
2018-Jan-23 12:31 151 1 15.6
2018-Jan-23 12:26 124 1 15.6
2018-Jan-23 12:21 192 1 15.6
2018-Jan-23 12:16 121 1 15.6
2018-Jan-23 12:11 152 0 15.6
2018-Jan-23 12:06 122 0 15.6
2018-Jan-23 12:01 180 1 15.6
2018-Jan-23 11:56 167 1 15.6
2018-Jan-23 11:51 155 0 15.0
2018-Jan-23 11:46 173 0 15.0
2018-Jan-23 11:41 176 0 15.0
2018-Jan-23 11:36 202 0 15.0
2018-Jan-23 11:31 154 15.0
2018-Jan-23 11:26 141 0 15.0
2018-Jan-23 11:21 157 0 15.0
2018-Jan-23 11:16 149 14.4
2018-Jan-23 11:11 146 14.4
2018-Jan-23 11:06 146 14.4
2018-Jan-23 11:01 146 14.4
2018-Jan-23 10:56 132 13.9
2018-Jan-23 10:51 123 13.9
2018-Jan-23 10:46 123 13.3
2018-Jan-23 10:41 123 13.3
2018-Jan-23 10:36 119 13.3
2018-Jan-23 10:31 117 12.8
2018-Jan-23 10:26 115 12.8
2018-Jan-23 10:21 116 12.2
2018-Jan-23 10:16 116 12.2
2018-Jan-23 10:11 113 12.2
2018-Jan-23 10:06 113 12.2
2018-Jan-23 10:01 107 12.8
2018-Jan-23 09:56 078 12.8
2018-Jan-23 09:51 074 12.8
2018-Jan-23 09:46 074 12.8
2018-Jan-23 09:41 072 12.8
2018-Jan-23 09:36 066 12.8
2018-Jan-23 09:31 057 12.8
2018-Jan-23 09:26 005 12.2
2018-Jan-23 09:21 005 12.2
2018-Jan-23 09:16 005 11.7
2018-Jan-23 09:11 005 11.1
2018-Jan-23 09:06 005 10.6
2018-Jan-23 09:01 005 10.0
2018-Jan-23 08:56 005 9.4
2018-Jan-23 08:51 005 9.4
2018-Jan-23 08:46 005 8.9
2018-Jan-23 08:41 005 8.3
2018-Jan-23 08:36 005 7.8
2018-Jan-23 08:31 005 1 7.8
2018-Jan-23 08:26 005 1 7.2
2018-Jan-23 08:21 360 1 6.7
2018-Jan-23 08:16 355 2 6.7
2018-Jan-23 08:11 355 3 6.1
2018-Jan-23 08:06 355 2 6.1
2018-Jan-23 08:01 355 1 6.1
2018-Jan-23 07:56 355 2 5.6
2018-Jan-23 07:51 355 2 5.6
2018-Jan-23 07:46 338 0 5.6
2018-Jan-23 07:41 340 5.6
2018-Jan-23 07:36 347 5.6
2018-Jan-23 07:31 347 5.6
2018-Jan-23 07:26 347 1 5.6
2018-Jan-23 07:21 347 1 5.6
2018-Jan-23 07:16 339 0 5.6
2018-Jan-23 07:11 355 5.6
2018-Jan-23 07:06 355 5.6
2018-Jan-23 07:01 355 5.6
2018-Jan-23 06:56 355 5.6
2018-Jan-23 06:51 355 5.6
2018-Jan-23 06:46 355 5.6
2018-Jan-23 06:41 360 5.6
2018-Jan-23 06:36 009 5.6
2018-Jan-23 06:31 346 5.6
2018-Jan-23 06:26 342 5.6
2018-Jan-23 06:21 342 0 5.6
2018-Jan-23 06:16 340 1 5.6
2018-Jan-23 06:11 339 2 5.6
2018-Jan-23 06:06 335 2 5.6
2018-Jan-23 06:01 342 2 5.6
2018-Jan-23 05:56 340 2 6.1
2018-Jan-23 05:51 334 1 6.1
2018-Jan-23 05:46 338 0 6.1
2018-Jan-23 05:41 346 1 6.1
2018-Jan-23 05:36 346 1 6.1
2018-Jan-23 05:31 355 0 6.1
2018-Jan-23 05:26 338 0 6.1
2018-Jan-23 05:21 340 6.1
2018-Jan-23 05:16 334 0 6.1
2018-Jan-23 05:11 335 0 6.1
2018-Jan-23 05:06 333 6.1
2018-Jan-23 05:01 335 5.6
2018-Jan-23 04:56 335 6.1
2018-Jan-23 04:51 335 6.1
2018-Jan-23 04:46 335 0 6.1
2018-Jan-23 04:41 336 1 6.1
2018-Jan-23 04:36 329 1 6.1
2018-Jan-23 04:31 326 1 6.1
2018-Jan-23 04:26 327 0 6.1
2018-Jan-23 04:21 342 6.1
2018-Jan-23 04:16 342 0 6.1
2018-Jan-23 04:11 342 0 6.1
2018-Jan-23 04:06 341 6.1
2018-Jan-23 04:01 347 6.1
2018-Jan-23 03:56 347 6.1
2018-Jan-23 03:51 347 6.1
2018-Jan-23 03:46 350 6.7
2018-Jan-23 03:41 350 6.1
2018-Jan-23 03:36 350 6.1
2018-Jan-23 03:31 350 6.7
2018-Jan-23 03:26 350 6.1
2018-Jan-23 03:21 350 1 6.1
2018-Jan-23 03:16 355 2 6.1
2018-Jan-23 03:11 355 1 6.1
2018-Jan-23 03:06 340 0 6.1
2018-Jan-23 03:01 339 6.1
2018-Jan-23 02:56 340 6.1
2018-Jan-23 02:51 339 6.1
2018-Jan-23 02:46 337 6.1
2018-Jan-23 02:41 337 6.1
2018-Jan-23 02:36 337 6.1
2018-Jan-23 02:31 337 6.1
2018-Jan-23 02:26 337 6.1
2018-Jan-23 02:21 337 5.6
2018-Jan-23 02:16 337 0 5.6
2018-Jan-23 02:11 337 0 5.6
2018-Jan-23 02:06 337 5.6
2018-Jan-23 02:01 337 5.6
2018-Jan-23 01:56 337 5.6
2018-Jan-23 01:51 337 5.6
2018-Jan-23 01:46 337 5.6
2018-Jan-23 01:41 337 6.1
2018-Jan-23 01:36 337 6.1
2018-Jan-23 01:31 337 6.1
2018-Jan-23 01:26 337 6.1
2018-Jan-23 01:21 337 6.1
2018-Jan-23 01:16 337 6.1
2018-Jan-23 01:11 337 6.1
2018-Jan-23 01:06 337 6.1
2018-Jan-23 01:01 337 6.1
2018-Jan-23 00:56 337 6.1
2018-Jan-23 00:51 337 6.1
2018-Jan-23 00:46 337 6.7
2018-Jan-23 00:41 337 6.7
2018-Jan-23 00:36 337 6.7
2018-Jan-23 00:31 337 6.7
2018-Jan-23 00:26 337 6.7
2018-Jan-23 00:21 345 0 6.7
2018-Jan-23 00:16 333 0 6.7
2018-Jan-23 00:11 328 6.1
2018-Jan-23 00:06 328 6.7
2018-Jan-23 00:01 328 6.7
2018-Jan-22 23:56 328 6.7
2018-Jan-22 23:51 328 6.7
2018-Jan-22 23:46 328 6.7
2018-Jan-22 23:41 328 6.1
2018-Jan-22 23:36 328 6.1
2018-Jan-22 23:31 327 6.1
2018-Jan-22 23:26 327 6.1
2018-Jan-22 23:21 327 0 6.1
2018-Jan-22 23:16 325 1 6.1
2018-Jan-22 23:11 328 1 6.1
2018-Jan-22 23:06 342 0 6.1
2018-Jan-22 23:01 336 6.1
2018-Jan-22 22:56 331 6.1
2018-Jan-22 22:51 335 6.7
2018-Jan-22 22:46 335 6.1
2018-Jan-22 22:41 336 6.1
2018-Jan-22 22:36 336 6.1
2018-Jan-22 22:31 340 6.1
2018-Jan-22 22:26 355 6.7
2018-Jan-22 22:21 005 6.7
2018-Jan-22 22:16 005 0 6.7
2018-Jan-22 22:11 005 0 6.7
2018-Jan-22 22:06 348 6.7
2018-Jan-22 22:01 330 6.7
2018-Jan-22 21:56 330 6.7
2018-Jan-22 21:51 330 6.7
2018-Jan-22 21:46 328 6.7
2018-Jan-22 21:41 331 6.7
2018-Jan-22 21:36 336 6.7
2018-Jan-22 21:31 329 0 6.7
2018-Jan-22 21:26 339 2 6.7
2018-Jan-22 21:21 346 0 7.2
2018-Jan-22 21:16 347 6.7
2018-Jan-22 21:11 332 7.2
2018-Jan-22 21:06 339 7.2
2018-Jan-22 21:01 338 7.2
2018-Jan-22 20:56 332 0 7.2
2018-Jan-22 20:51 336 1 7.2
2018-Jan-22 20:46 350 0 7.2
2018-Jan-22 20:41 336 7.2
2018-Jan-22 20:36 341 7.2
2018-Jan-22 20:31 341 7.2
2018-Jan-22 20:26 336 1 7.2
2018-Jan-22 20:21 336 1 7.2
2018-Jan-22 20:16 334 0 7.2
2018-Jan-22 20:11 336 7.2
2018-Jan-22 20:06 326 7.2
2018-Jan-22 20:01 336 7.2
2018-Jan-22 19:56 338 7.2
2018-Jan-22 19:51 342 0 7.2
2018-Jan-22 19:46 331 0 7.2
2018-Jan-22 19:41 343 0 7.2
2018-Jan-22 19:36 348 1 7.8
2018-Jan-22 19:31 348 0 7.2
2018-Jan-22 19:26 334 7.8
2018-Jan-22 19:21 336 7.2
2018-Jan-22 19:16 336 7.8
2018-Jan-22 19:11 336 7.8
2018-Jan-22 19:06 336 7.8
2018-Jan-22 19:01 336 7.8
2018-Jan-22 18:56 336 7.8
2018-Jan-22 18:51 336 7.8
2018-Jan-22 18:46 336 7.8
2018-Jan-22 18:41 336 7.8
2018-Jan-22 18:36 336 7.8
2018-Jan-22 18:31 336 7.8
2018-Jan-22 18:26 336 7.8
2018-Jan-22 18:21 336 0 7.8
2018-Jan-22 18:16 336 0 7.8
2018-Jan-22 18:11 349 0 8.3
2018-Jan-22 18:06 8.3
2018-Jan-22 18:01 350 8.9
2018-Jan-22 17:56 350 8.9
2018-Jan-22 17:51 350 8.9
2018-Jan-22 17:46 350 8.9
2018-Jan-22 17:41 350 9.4
2018-Jan-22 17:36 308 9.4
2018-Jan-22 17:31 308 10.0
2018-Jan-22 17:26 197 10.0
2018-Jan-22 17:21 197 10.6
2018-Jan-22 17:16 197 10.6
2018-Jan-22 17:11 197 10.6
2018-Jan-22 17:06 198 10.6
2018-Jan-22 17:01 198 11.1
2018-Jan-22 16:56 199 11.1
2018-Jan-22 16:51 200 11.1
2018-Jan-22 16:46 11.7
2018-Jan-22 16:41 11.7
2018-Jan-22 16:36 11.7
2018-Jan-22 16:31 193 12.2
2018-Jan-22 16:26 182 12.2
2018-Jan-22 16:21 182 12.8
2018-Jan-22 16:16 184 12.8
2018-Jan-22 16:11 180 13.3
2018-Jan-22 16:06 181 13.3
2018-Jan-22 16:01 182 13.3
2018-Jan-22 15:56 180 0 13.3
2018-Jan-22 15:51 215 0 13.9
2018-Jan-22 15:46 216 0 13.9
2018-Jan-22 15:41 187 0 13.9
2018-Jan-22 15:36 208 13.9
2018-Jan-22 15:31 13.9
2018-Jan-22 15:26 213 13.9
2018-Jan-22 15:21 213 13.9
2018-Jan-22 15:16 178 0 13.9
2018-Jan-22 15:11 198 1 13.9
2018-Jan-22 15:06 171 1 13.9
2018-Jan-22 15:01 188 1 13.9
2018-Jan-22 14:56 182 0 13.9
2018-Jan-22 14:51 192 0 13.9
2018-Jan-22 14:46 211 0 13.9
2018-Jan-22 14:41 213 0 13.9
2018-Jan-22 14:36 216 0 13.9
2018-Jan-22 14:31 241 1 13.9
2018-Jan-22 14:26 193 1 13.9
2018-Jan-22 14:21 184 1 13.9
2018-Jan-22 14:16 228 1 13.9
2018-Jan-22 14:11 205 0 14.4
2018-Jan-22 14:06 180 1 13.9
2018-Jan-22 14:01 215 1 13.9
2018-Jan-22 13:56 224 1 14.4
2018-Jan-22 13:51 186 1 14.4
2018-Jan-22 13:46 210 1 14.4
2018-Jan-22 13:41 196 1 14.4
2018-Jan-22 13:36 185 0 13.9
2018-Jan-22 13:31 159 0 13.9
2018-Jan-22 13:26 214 13.3
2018-Jan-22 13:21 227 0 13.3
2018-Jan-22 13:16 181 0 13.3
2018-Jan-22 13:11 221 1 12.8
2018-Jan-22 13:06 206 1 12.8
2018-Jan-22 13:01 248 1 12.8
2018-Jan-22 12:56 198 1 12.8
2018-Jan-22 12:51 207 1 13.3
2018-Jan-22 12:46 155 1 13.3
2018-Jan-22 12:41 234 0 13.3
2018-Jan-22 12:36 219 13.3
2018-Jan-22 12:31 217 0 13.3
2018-Jan-22 12:26 170 0 12.8
2018-Jan-22 12:21 173 12.8
2018-Jan-22 12:16 156 0 12.8
2018-Jan-22 12:11 211 0 12.2
2018-Jan-22 12:06 210 0 12.2
2018-Jan-22 12:01 236 12.2
2018-Jan-22 11:56 142 0 12.2
2018-Jan-22 11:51 229 0 11.7
2018-Jan-22 11:46 218 0 11.7
2018-Jan-22 11:41 210 1 11.7
2018-Jan-22 11:36 190 1 11.7
2018-Jan-22 11:31 182 1 11.7
2018-Jan-22 11:26 224 2 12.2
2018-Jan-22 11:21 231 1 12.2
2018-Jan-22 11:16 224 1 12.2
2018-Jan-22 11:11 147 1 12.2
2018-Jan-22 11:06 153 1 12.2
2018-Jan-22 11:01 11.7
2018-Jan-22 10:56 10.6
2018-Jan-22 10:51 145 10.6
2018-Jan-22 10:46 144 10.6
2018-Jan-22 10:41 142 11.1
2018-Jan-22 10:36 146 11.1
2018-Jan-22 10:31 148 11.1
2018-Jan-22 10:26 148 10.6
2018-Jan-22 10:21 146 10.6
2018-Jan-22 10:16 153 10.6
2018-Jan-22 10:11 149 10.6
2018-Jan-22 10:06 164 10.6
2018-Jan-22 10:01 155 10.0